2025-274B

Last updated on Wed Dec 31 2025 00:02:07 GMT+0000 (Coordinated Universal Time)

1 66651U 25274B 25364.25725893 .00005956 00000+0 59306-3 0 9995 2 66651 97.7391 291.1300 0011800 186.8978 173.2081 14.91938942 5013
UTC large
Height (km)
Speed (km/s)
/
Latitude / Longitude
Inclination (degrees)
Orbital Period (minutes)
Azimuth
Elevation
Range (km)
Doppler Factor

Next 0 passes for location: London (51.5072 / 0.1276)

Sorry there are no passes over London.